Tracking 18957 objects as of 22-Jan-2018
HD Live streaming from Space Station
objects crossing your sky now

FENGYUN 1C DEB

Track FENGYUN 1C DEB now!
10-day predictions


NORAD ID: 31826
Int'l Code: 1999-025CHQ
Perigee: 755.6 km
Apogee: 945.7 km
Inclination: 98.8 °
Period: 101.8 minutes
Semi major axis: 7221 km
RCS: 0.0127 m2 (small)
Launch date: May 10, 1999
Source: People's Republic of China (PRC)
Launch site: Taiyaun Space Center, China (TSC)

Note: This is SATELLITE DEBRIS
aabbcc
Your satellite tracking list
Your tracking list is empty




NASA's NSSDC Master Catalog

Two Line Element Set (TLE):
1 31826U 99025CHQ 18020.88480405 +.00000131 +00000-0 +83472-4 0  9996
2 31826 098.7566 060.3236 0131629 178.7217 306.1990 14.14657003550175
Source of the keplerian elements: AFSPC